Location: Evansville
(37.9747°N, 87.5558°W)
Time: 18:27:16
(UTC-06:00)

ARIANE 6 FM1 Upper Stage - Pass Details

Date: 12 December 2025
Orbit: 522 x 610 km, 62.0° (Epoch: 13 January)

Event Time Altitude Azimuth Distance (km) Brightness Sun altitude
Rises 05:17:24 0° 167° (SSE) 2,707 6.5 -19.0°
Maximum altitude 05:22:26 12° 113° (ESE) 1,667 6.3 -18.0°
Drops below altitude 10° 05:24:00 10° 90° (E) 1,787 6.4 -17.7°
Sets 05:27:25 0° 58° (ENE) 2,667 6.8 -17.1°
